Terug naar catalogus

FENGYUN 1C DEB

ActiefSSO
NORAD 31028·DEBRIS·🇨🇳 China

Gelanceerd May 10, 1999 vanaf Taiyuan Satellite Launch Center

Loading…

Volgende Passages (komende 24 uur)

TLE

VersSource: Space-Track

Epoch: Sep 13, 2026, 13:33 UTC

1 31028U 99025BDW 26256.56524940  .00000166  00000-0  15301-3 0  9991
2 31028  98.7113 175.8052 0163854 261.7619  96.4930 13.89243691658198

Volg FENGYUN 1C DEB in realtime met AllMySat

Download on the App Store